SCP
0 0 0 0 0 0 0 0 0 0 0 0 0 0 0 0 0 0 0 0 0 0 0 0 0 0 0 0 0 0 0 0 0 0 0 0 0 0 0 0 0 0 0
0 0 0 0 0 0 0 0 0 0 0 0 0 0 0 0 0 0 0 0 0 0 0 0 0 0 0 0 0 0 0 0 0 0 0 0 0 0 0 0 0 0 0
0 0 0 0 0 0 0 0 0 0 0 0 0 0 0 0 0 0 0 0 0 0 0 0 0 0 0 0 0 0 0 0 0 0 0 0 0 0 0 0 0 0 0
0 0 0 0 0 0 0 0 0 0 0 0 0 0 0 0 0 0 0 0 0 0 0 0 0 0 0 0 0 0 0 0 0 0 0 0 0 0 0 0 0 0 0
0 0 0 0 0 0 0 0 0 0 0 0 0 0 0 0 0 0 0 0 0 0 0 0 0 0 0 0 0 0 0 0 0 0 0 0 0 0 0 0 0 0 0
0 0 0 0 0 0 0 0 0 0 0 0 0 0 0 0 0 0 0 0 0 0 0 0 0 0 0 0 0 0 0 0 0 0 0 0 0 0 0 0 0 0 0
0 0 0 0 0 0 0 0 0 0 0 0 0 0 0 0 0 0 0 0 0 0 0 0 0 0 0 0 0 0 0 0 0 0 0 0 0 0 0 0 0 0 0
0 0 0 0 0 0 0 0 0 0 0 0 0 0 0 0 0 0 0 0 0 0 0 0 0 0 0 0 0 0 0 0 0 0 0 0 0 0 0 0 0 0 0
0 0 0 0 0 0 0 0 0 0 0 0 0 0 0 0 0 0 0 0 0 0 0 0 0 0 0 0 0 0 0 0 0 0 0 0 0 0 0 0 0 0 0
0 0 0 0 0 0 0 0 0 0 0 0 0 0 0 0 0 0 0 0 0 0 0 0 0 0 0 0 0 0 0 0 0 0 0 0 0 0 0 0 0 0 0
0 0 0 0 0 0 0 0 0 0 0 0 0 0 0 0 0 0 0 0 0 0 0 0 0 0 0 0 0 0 0 0 0 0 0 0 0 0 0 0 0 0 0
0 0 0 0 0 0 0 0 0 0 0 0 0 0 0 0 0 0 0 0 0 0 0 0 0 0 0 0 0 0 0 0 0 0 0 0 0 0 0 0 0 0 0
0 0 0 0 0 0 0 0 0 0 0 0 0 0 0 0 0 0 0 0 0 0 0 0 0 0 0 0 0 0 0 0 0 0 0 0 0 0 0 0 0 0 0
0 0 0 0 0 0 0 0 0 0 0 0 0 0 0 0 0 0 0 0 0 0 0 0 0 0 0 0 0 0 0 0 0 0 0 0 0 0 0 0 0 0 0
0 0 0 0 0 0 0 0 0 0 0 0 0 0 0 0 0 0 0 0 0 0 0 0 0 0 0 0 0 0 0 0 0 0 0 0 0 0 0 0 0 0 0
0 0 0 0 0 0 0 0 0 0 0 0 0 0 0 0 0 0 0 0 0 0 0 0 0 0 0 0 0 0 0 0 0 0 0 0 0 0 0 0 0 0 0
0 0 0 0 0 0 0 0 0 0 0 0 0 0 0 0 0 0 0 0 0 0 0 0 0 0 0 0 0 0 0 0 0 0 0 0 0 0 0 0 0 0 0
0 0 0 0 0 0 0 0 0 0 0 0 0 0 0 0 0 0 0 0 0 0 0 0 0 0 0 0 0 0 0 0 0 0 0 0 0 0 0 0 0 0 0
0 0 0 0 0 0 0 0 0 0 0 0 0 0 0 0 0 0 0 0 0 0 0 0 0 0 0 0 0 0 0 0 0 0 0 0 0 0 0 0 0 0 0
0 0 0 0 0 0 0 0 0 0 0 0 0 0 0 0 0 0 0 0 0 0 0 0 0 0 0 0 0 0 0 0 0 0 0 0 0 0 0 0 0 0 0
0 0 0 0 0 0 0 0 0 0 0 0 0 0 0 0 0 0 0 0 0 0 0 0 0 0 0 0 0 0 0 0 0 0 0 0 0 0 0 0 0 0 0
0 0 0 0 0 0 0 0 0 0 0 0 0 0 0 0 0 0 0 0 0 0 0 0 0 0 0 0 0 0 0 0 0 0 0 0 0 0 0 0 0 0 0
0 0 0 0 0 0 0 0 0 0 0 0 0 0 0 0 0 0 0 0 0 0 0 0 0 0 0 0 0 0 0 0 0 0 0 0 0 0 0 0 0 0 0
0 0 0 0 0 0 0 0 0 0 0 0 0 0 0 0 0 0 0 0 0 0 0 0 0 0 0 0 0 0 0 0 0 0 0 0 0 0 0 0 0 0 0
0 0 0 0 0 0 0 0 0 0 0 0 0 0 0 0 0 0 0 0 0 0 0 0 0 0 0 0 0 0 0 0 0 0 0 0 0 0 0 0 0 0 0
0 0 0 0 0 0 0 0 0 0 0 0 0 0 0 0 0 0 0 0 0 0 0 0 0 0 0 0 0 0 0 0 0 0 0 0 0 0 0 0 0 0 0
Wind_Speed_500mb
63 69 77 79 78 76 66 64 66 63 64 61 59 59 56 62 63 64 59 50 41 41 43 42 40 36 37 31 38 32 29 27 29 29 28 31 27 24 20 17 18 21 24
54 59 66 73 75 77 71 70 67 67 66 62 63 64 63 61 58 63 59 48 40 47 44 42 39 41 39 34 31 30 27 24 25 27 31 29 24 23 21 19 19 25 31
34 37 41 48 53 55 58 60 59 61 61 63 63 58 56 55 56 61 53 47 39 42 42 40 38 38 33 34 30 26 23 22 27 30 30 27 25 25 23 23 24 26 34
25 28 32 36 39 43 46 47 51 53 54 58 57 55 50 51 57 56 52 46 39 41 42 44 39 34 33 30 26 23 23 26 29 29 29 27 27 26 27 29 29 33 35
23 27 30 33 37 39 41 45 48 50 52 53 51 45 43 49 53 52 45 42 41 41 39 38 34 32 29 26 25 25 29 29 27 28 29 27 26 26 30 35 39 40 39
26 28 31 34 33 35 36 37 40 42 42 37 34 40 39 43 36 34 36 38 40 41 36 35 34 31 29 25 28 31 31 28 25 27 25 25 28 31 34 38 43 47 47
28 26 26 26 26 26 26 27 26 27 25 33 33 40 40 36 33 36 35 37 35 35 36 32 30 29 26 28 31 29 28 27 26 27 27 27 28 32 37 39 40 42 45
28 24 22 20 21 21 20 19 24 25 28 33 39 36 42 39 35 33 38 37 36 33 31 29 29 29 29 32 29 27 27 26 26 27 25 27 29 34 38 39 41 43 43
29 25 22 21 22 21 21 23 24 26 34 34 34 44 38 33 30 35 38 37 35 35 35 34 29 35 33 31 29 30 30 29 28 27 26 28 32 36 37 39 37 41 47
27 26 25 24 23 22 21 23 27 30 34 36 38 37 33 31 31 37 38 38 37 39 37 32 37 35 32 31 31 33 32 31 29 27 29 31 34 35 37 37 35 35 40
26 28 26 23 22 22 23 23 28 32 34 35 36 39 39 37 38 39 43 43 42 39 37 39 36 32 32 34 35 35 33 32 31 32 32 34 35 36 37 34 33 35 38
25 24 22 22 22 23 25 25 30 33 36 38 39 41 43 39 40 43 45 45 42 43 40 36 35 36 37 38 39 38 36 36 37 35 36 37 37 36 35 34 34 35 36
21 22 21 21 22 23 24 24 29 33 35 36 38 38 40 41 43 42 42 50 51 44 41 39 40 41 42 43 44 42 41 42 40 40 41 40 39 37 38 39 38 38 34
16 17 17 17 18 18 19 22 25 27 29 33 37 39 41 41 43 47 47 51 52 49 46 45 44 46 49 49 49 47 46 47 46 46 46 45 43 42 44 45 43 42 40
8 9 10 11 13 14 16 20 23 26 29 30 32 36 41 43 41 44 48 51 51 48 47 47 51 53 55 54 53 53 53 53 53 52 53 49 48 49 49 49 48 47 45
7 7 7 8 11 14 16 20 21 24 29 35 37 38 41 42 42 43 45 47 50 51 53 54 55 58 59 56 57 57 58 59 56 56 55 54 54 54 54 52 51 50 48
2 2 5 8 10 12 14 18 20 22 27 32 36 39 42 45 46 48 49 51 52 55 61 61 63 65 66 63 64 65 64 62 59 61 59 58 58 59 58 54 52 51 49
4 4 4 5 8 11 15 18 20 22 25 28 31 36 40 43 47 49 52 58 61 63 67 67 70 71 74 73 69 69 64 64 65 63 63 61 61 61 61 58 54 52 50
9 9 10 11 12 14 17 19 22 25 27 30 32 35 38 41 42 46 52 60 63 64 66 71 76 83 75 73 69 69 66 66 64 65 66 66 63 63 63 60 58 55 54
16 15 16 16 16 16 18 21 24 27 30 33 35 37 40 42 47 51 52 54 57 61 66 71 74 74 71 74 75 74 70 70 72 69 66 65 66 65 64 60 59 58 55
15 16 15 16 17 20 21 23 25 29 32 34 36 38 44 47 47 48 52 56 62 67 69 76 84 83 76 70 71 73 76 76 78 78 76 70 68 67 65 61 60 58 55
16 17 18 19 22 23 25 29 32 33 37 40 42 44 47 52 56 57 57 60 64 69 72 72 76 79 79 78 78 78 81 82 83 82 79 76 72 68 67 65 61 59 56
19 23 26 28 31 33 35 37 39 42 42 45 47 48 50 52 55 57 60 63 66 69 69 70 71 73 75 76 77 78 76 75 76 73 73 71 68 67 65 65 62 58 59
27 32 35 39 42 45 48 49 50 51 52 54 54 54 55 56 58 59 61 62 63 65 67 68 68 68 69 71 69 67 68 69 68 68 65 66 66 64 62 62 61 58 56
39 44 47 51 54 55 57 58 59 60 59 59 58 57 58 58 59 60 60 61 61 61 59 61 63 60 58 60 63 63 62 61 61 61 62 60 59 61 60 59 59 56 56
43 46 49 52 54 56 58 59 58 58 58 57 56 56 57 58 58 58 57 56 55 53 52 50 51 53 53 53 53 54 55 56 55 54 55 57 56 56 58 57 55 57 57
Wind_Direction_500mb
238 237 239 243 241 239 235 232 233 234 235 236 240 241 245 242 241 239 244 239 246 245 248 249 256 251 241 258 243 242 236 237 244 248 256 260 258 246 250 269 290 309 321
248 245 242 242 243 244 240 242 240 236 237 240 238 244 249 246 241 241 230 236 242 246 246 251 261 238 233 239 240 235 237 244 257 266 268 263 250 249 259 278 297 312 326
254 253 248 246 247 246 245 246 241 242 241 241 245 245 246 241 240 233 231 232 239 248 240 260 259 225 235 238 234 238 247 262 270 272 266 259 256 263 273 290 301 320 328
256 248 243 241 242 241 242 243 243 243 243 244 243 245 233 236 231 228 231 234 238 240 248 245 218 230 231 233 237 243 262 271 271 267 259 256 260 273 287 297 308 320 327
260 260 256 252 250 250 249 248 246 245 246 244 242 235 223 225 229 223 227 231 242 241 231 225 231 228 227 234 241 261 271 270 266 260 255 258 268 280 290 304 313 318 325
260 256 254 253 253 253 256 256 250 245 241 231 227 216 217 217 214 232 243 240 231 218 229 229 225 224 229 238 256 265 269 270 264 258 260 267 275 287 300 308 314 320 323
258 254 253 255 253 248 241 240 237 234 226 213 212 222 209 218 229 241 237 228 231 232 224 218 224 229 236 251 260 267 269 266 261 262 266 275 287 299 305 307 309 316 320
253 248 249 252 252 251 244 230 223 218 216 223 212 222 218 228 240 240 230 230 227 220 220 222 225 234 250 252 263 269 269 263 259 262 271 283 295 300 301 305 313 315 320
250 249 252 252 253 247 232 223 229 228 224 216 230 225 225 233 253 241 234 225 219 220 219 223 233 251 248 259 265 267 265 261 263 268 279 288 295 299 300 304 309 315 323
247 249 246 246 246 247 237 227 228 232 239 241 234 234 236 247 248 237 227 226 225 227 226 237 245 246 255 263 266 264 261 261 265 275 283 290 296 295 297 300 307 317 321
240 246 246 247 248 245 236 230 230 232 234 238 237 239 239 236 230 229 228 229 229 228 238 247 246 252 259 264 262 260 259 262 265 272 280 289 291 290 292 298 305 314 318
237 243 247 249 248 246 244 237 237 238 242 243 243 244 240 230 227 227 231 234 233 244 243 245 248 255 260 261 261 260 259 260 265 273 281 287 286 288 292 295 300 304 309
239 241 242 243 242 240 240 242 241 242 244 245 246 246 244 239 237 236 242 247 244 243 247 248 251 258 261 261 262 261 258 262 268 273 279 281 283 286 287 288 290 294 300
222 225 228 234 240 245 248 246 244 246 249 250 250 251 250 250 253 255 251 247 244 248 251 251 258 261 263 263 262 263 263 266 271 274 277 279 282 284 284 283 284 287 294
185 211 223 236 249 252 252 253 253 254 251 250 255 260 260 260 264 262 259 257 256 261 259 258 260 262 265 266 267 267 267 269 271 274 276 278 279 280 281 281 281 284 288
170 190 209 233 246 250 251 256 258 260 264 266 265 264 266 266 263 260 259 258 258 262 258 260 263 267 268 269 270 270 269 270 272 274 276 277 277 278 279 277 277 280 282
70 194 221 235 246 254 260 264 266 264 267 271 273 273 273 272 269 264 261 259 259 261 260 263 265 269 272 270 269 269 270 272 272 271 273 275 276 276 276 276 275 277 279
54 355 320 297 281 275 273 273 275 275 274 275 276 276 275 275 274 272 271 269 265 263 264 267 271 273 274 273 273 272 272 272 272 273 273 273 274 274 274 274 273 273 275
31 12 353 338 323 310 299 292 289 287 287 286 285 285 286 282 279 276 272 270 269 270 271 274 282 284 275 275 274 273 273 273 275 273 273 272 274 273 272 272 271 271 270
34 26 12 1 347 335 326 321 317 310 305 302 300 297 290 286 285 285 281 277 274 276 279 283 286 285 281 280 278 276 272 271 270 272 272 275 275 274 272 271 268 267 268
37 25 14 7 356 348 341 334 326 319 313 307 302 296 292 287 284 283 282 281 281 282 284 286 286 286 284 280 282 279 278 281 280 275 274 272 270 269 272 270 268 266 265
23 14 2 352 345 338 332 324 319 314 309 305 302 299 296 294 293 291 287 283 281 281 281 284 286 287 285 282 279 277 275 277 278 277 276 274 271 268 266 266 263 262 261
351 342 335 330 326 321 317 314 311 307 305 303 301 301 299 297 295 294 292 291 288 286 285 283 281 281 282 283 283 281 279 278 279 278 275 273 272 270 266 266 264 261 260
324 321 318 315 313 311 309 307 305 304 305 304 303 303 302 301 301 301 301 299 296 293 291 288 285 283 283 283 283 281 280 280 279 278 276 274 274 271 268 265 263 262 260
317 317 316 313 312 310 308 307 305 304 303 302 302 302 302 303 304 304 304 302 300 298 294 291 290 288 285 284 284 283 281 279 278 277 276 273 271 270 268 266 264 263 260
318 317 315 313 310 307 305 304 302 302 302 303 304 306 308 309 309 309 308 306 303 299 296 293 291 292 292 289 286 284 283 280 277 275 272 270 268 267 269 269 269 267 265
Wind_Speed_850mb
63 69 77 79 78 76 66 64 66 63 64 61 59 59 56 62 63 64 59 50 41 41 43 42 40 36 37 31 38 32 29 27 29 29 28 31 27 24 20 17 18 21 24
54 59 66 73 75 77 71 70 67 67 66 62 63 64 63 61 58 63 59 48 40 47 44 42 39 41 39 34 31 30 27 24 25 27 31 29 24 23 21 19 19 25 31
34 37 41 48 53 55 58 60 59 61 61 63 63 58 56 55 56 61 53 47 39 42 42 40 38 38 33 34 30 26 23 22 27 30 30 27 25 25 23 23 24 26 34
25 28 32 36 39 43 46 47 51 53 54 58 57 55 50 51 57 56 52 46 39 41 42 44 39 34 33 30 26 23 23 26 29 29 29 27 27 26 27 29 29 33 35
23 27 30 33 37 39 41 45 48 50 52 53 51 45 43 49 53 52 45 42 41 41 39 38 34 32 29 26 25 25 29 29 27 28 29 27 26 26 30 35 39 40 39
26 28 31 34 33 35 36 37 40 42 42 37 34 40 39 43 36 34 36 38 40 41 36 35 34 31 29 25 28 31 31 28 25 27 25 25 28 31 34 38 43 47 47
28 26 26 26 26 26 26 27 26 27 25 33 33 40 40 36 33 36 35 37 35 35 36 32 30 29 26 28 31 29 28 27 26 27 27 27 28 32 37 39 40 42 45
28 24 22 20 21 21 20 19 24 25 28 33 39 36 42 39 35 33 38 37 36 33 31 29 29 29 29 32 29 27 27 26 26 27 25 27 29 34 38 39 41 43 43
29 25 22 21 22 21 21 23 24 26 34 34 34 44 38 33 30 35 38 37 35 35 35 34 29 35 33 31 29 30 30 29 28 27 26 28 32 36 37 39 37 41 47
27 26 25 24 23 22 21 23 27 30 34 36 38 37 33 31 31 37 38 38 37 39 37 32 37 35 32 31 31 33 32 31 29 27 29 31 34 35 37 37 35 35 40
26 28 26 23 22 22 23 23 28 32 34 35 36 39 39 37 38 39 43 43 42 39 37 39 36 32 32 34 35 35 33 32 31 32 32 34 35 36 37 34 33 35 38
25 24 22 22 22 23 25 25 30 33 36 38 39 41 43 39 40 43 45 45 42 43 40 36 35 36 37 38 39 38 36 36 37 35 36 37 37 36 35 34 34 35 36
21 22 21 21 22 23 24 24 29 33 35 36 38 38 40 41 43 42 42 50 51 44 41 39 40 41 42 43 44 42 41 42 40 40 41 40 39 37 38 39 38 38 34
16 17 17 17 18 18 19 22 25 27 29 33 37 39 41 41 43 47 47 51 52 49 46 45 44 46 49 49 49 47 46 47 46 46 46 45 43 42 44 45 43 42 40
8 9 10 11 13 14 16 20 23 26 29 30 32 36 41 43 41 44 48 51 51 48 47 47 51 53 55 54 53 53 53 53 53 52 53 49 48 49 49 49 48 47 45
7 7 7 8 11 14 16 20 21 24 29 35 37 38 41 42 42 43 45 47 50 51 53 54 55 58 59 56 57 57 58 59 56 56 55 54 54 54 54 52 51 50 48
2 2 5 8 10 12 14 18 20 22 27 32 36 39 42 45 46 48 49 51 52 55 61 61 63 65 66 63 64 65 64 62 59 61 59 58 58 59 58 54 52 51 49
4 4 4 5 8 11 15 18 20 22 25 28 31 36 40 43 47 49 52 58 61 63 67 67 70 71 74 73 69 69 64 64 65 63 63 61 61 61 61 58 54 52 50
9 9 10 11 12 14 17 19 22 25 27 30 32 35 38 41 42 46 52 60 63 64 66 71 76 83 75 73 69 69 66 66 64 65 66 66 63 63 63 60 58 55 54
16 15 16 16 16 16 18 21 24 27 30 33 35 37 40 42 47 51 52 54 57 61 66 71 74 74 71 74 75 74 70 70 72 69 66 65 66 65 64 60 59 58 55
15 16 15 16 17 20 21 23 25 29 32 34 36 38 44 47 47 48 52 56 62 67 69 76 84 83 76 70 71 73 76 76 78 78 76 70 68 67 65 61 60 58 55
16 17 18 19 22 23 25 29 32 33 37 40 42 44 47 52 56 57 57 60 64 69 72 72 76 79 79 78 78 78 81 82 83 82 79 76 72 68 67 65 61 59 56
19 23 26 28 31 33 35 37 39 42 42 45 47 48 50 52 55 57 60 63 66 69 69 70 71 73 75 76 77 78 76 75 76 73 73 71 68 67 65 65 62 58 59
27 32 35 39 42 45 48 49 50 51 52 54 54 54 55 56 58 59 61 62 63 65 67 68 68 68 69 71 69 67 68 69 68 68 65 66 66 64 62 62 61 58 56
39 44 47 51 54 55 57 58 59 60 59 59 58 57 58 58 59 60 60 61 61 61 59 61 63 60 58 60 63 63 62 61 61 61 62 60 59 61 60 59 59 56 56
43 46 49 52 54 56 58 59 58 58 58 57 56 56 57 58 58 58 57 56 55 53 52 50 51 53 53 53 53 54 55 56 55 54 55 57 56 56 58 57 55 57 57
Wind_Direction_850mb
238 237 239 243 241 239 235 232 233 234 235 236 240 241 245 242 241 239 244 239 246 245 248 249 256 251 241 258 243 242 236 237 244 248 256 260 258 246 250 269 290 309 321
248 245 242 242 243 244 240 242 240 236 237 240 238 244 249 246 241 241 230 236 242 246 246 251 261 238 233 239 240 235 237 244 257 266 268 263 250 249 259 278 297 312 326
254 253 248 246 247 246 245 246 241 242 241 241 245 245 246 241 240 233 231 232 239 248 240 260 259 225 235 238 234 238 247 262 270 272 266 259 256 263 273 290 301 320 328
256 248 243 241 242 241 242 243 243 243 243 244 243 245 233 236 231 228 231 234 238 240 248 245 218 230 231 233 237 243 262 271 271 267 259 256 260 273 287 297 308 320 327
260 260 256 252 250 250 249 248 246 245 246 244 242 235 223 225 229 223 227 231 242 241 231 225 231 228 227 234 241 261 271 270 266 260 255 258 268 280 290 304 313 318 325
260 256 254 253 253 253 256 256 250 245 241 231 227 216 217 217 214 232 243 240 231 218 229 229 225 224 229 238 256 265 269 270 264 258 260 267 275 287 300 308 314 320 323
258 254 253 255 253 248 241 240 237 234 226 213 212 222 209 218 229 241 237 228 231 232 224 218 224 229 236 251 260 267 269 266 261 262 266 275 287 299 305 307 309 316 320
253 248 249 252 252 251 244 230 223 218 216 223 212 222 218 228 240 240 230 230 227 220 220 222 225 234 250 252 263 269 269 263 259 262 271 283 295 300 301 305 313 315 320
250 249 252 252 253 247 232 223 229 228 224 216 230 225 225 233 253 241 234 225 219 220 219 223 233 251 248 259 265 267 265 261 263 268 279 288 295 299 300 304 309 315 323
247 249 246 246 246 247 237 227 228 232 239 241 234 234 236 247 248 237 227 226 225 227 226 237 245 246 255 263 266 264 261 261 265 275 283 290 296 295 297 300 307 317 321
240 246 246 247 248 245 236 230 230 232 234 238 237 239 239 236 230 229 228 229 229 228 238 247 246 252 259 264 262 260 259 262 265 272 280 289 291 290 292 298 305 314 318
237 243 247 249 248 246 244 237 237 238 242 243 243 244 240 230 227 227 231 234 233 244 243 245 248 255 260 261 261 260 259 260 265 273 281 287 286 288 292 295 300 304 309
239 241 242 243 242 240 240 242 241 242 244 245 246 246 244 239 237 236 242 247 244 243 247 248 251 258 261 261 262 261 258 262 268 273 279 281 283 286 287 288 290 294 300
222 225 228 234 240 245 248 246 244 246 249 250 250 251 250 250 253 255 251 247 244 248 251 251 258 261 263 263 262 263 263 266 271 274 277 279 282 284 284 283 284 287 294
185 211 223 236 249 252 252 253 253 254 251 250 255 260 260 260 264 262 259 257 256 261 259 258 260 262 265 266 267 267 267 269 271 274 276 278 279 280 281 281 281 284 288
170 190 209 233 246 250 251 256 258 260 264 266 265 264 266 266 263 260 259 258 258 262 258 260 263 267 268 269 270 270 269 270 272 274 276 277 277 278 279 277 277 280 282
70 194 221 235 246 254 260 264 266 264 267 271 273 273 273 272 269 264 261 259 259 261 260 263 265 269 272 270 269 269 270 272 272 271 273 275 276 276 276 276 275 277 279
54 355 320 297 281 275 273 273 275 275 274 275 276 276 275 275 274 272 271 269 265 263 264 267 271 273 274 273 273 272 272 272 272 273 273 273 274 274 274 274 273 273 275
31 12 353 338 323 310 299 292 289 287 287 286 285 285 286 282 279 276 272 270 269 270 271 274 282 284 275 275 274 273 273 273 275 273 273 272 274 273 272 272 271 271 270
34 26 12 1 347 335 326 321 317 310 305 302 300 297 290 286 285 285 281 277 274 276 279 283 286 285 281 280 278 276 272 271 270 272 272 275 275 274 272 271 268 267 268
37 25 14 7 356 348 341 334 326 319 313 307 302 296 292 287 284 283 282 281 281 282 284 286 286 286 284 280 282 279 278 281 280 275 274 272 270 269 272 270 268 266 265
23 14 2 352 345 338 332 324 319 314 309 305 302 299 296 294 293 291 287 283 281 281 281 284 286 287 285 282 279 277 275 277 278 277 276 274 271 268 266 266 263 262 261
351 342 335 330 326 321 317 314 311 307 305 303 301 301 299 297 295 294 292 291 288 286 285 283 281 281 282 283 283 281 279 278 279 278 275 273 272 270 266 266 264 261 260
324 321 318 315 313 311 309 307 305 304 305 304 303 303 302 301 301 301 301 299 296 293 291 288 285 283 283 283 283 281 280 280 279 278 276 274 274 271 268 265 263 262 260
317 317 316 313 312 310 308 307 305 304 303 302 302 302 302 303 304 304 304 302 300 298 294 291 290 288 285 284 284 283 281 279 278 277 276 273 271 270 268 266 264 263 260
318 317 315 313 310 307 305 304 302 302 302 303 304 306 308 309 309 309 308 306 303 299 296 293 291 292 292 289 286 284 283 280 277 275 272 270 268 267 269 269 269 267 265